Regional Weather Roundup
Issued by NWS Wilmington, NC

Home | Current Version | Previous Version | Text Only | Print | Product List | Glossary On
Versions: 1 2 3 4 5 6 7 8 9 10 11 12 13 14 15 16 17 18 19 20 21 22 23 24 25 26 27 28 29 30 31 32 33 34 35 36 37 38 39 40 41 42 43 44 45 46 47
000
ASUS42 KILM 011213
RWRILM
RWRILM
REGIONAL HOURLY WEATHER ROUNDUP
NATIONAL WEATHER SERVICE WILMINGTON NC
800 AM EDT TUE SEP 01 2015

NOTE: "FAIR" INDICATES FEW OR NO CLOUDS BELOW 12,000 FEET WITH NO
SIGNIFICANT WEATHER AND/OR OBSTRUCTIONS TO VISIBILITY.

...............WFO WILMINGTON COUNTY WARNING AREA...............

......COASTAL NC AND SC COUNTIES......

CITY           SKY/WX    TMP DP  RH WIND       PRES   REMARKS
WILMINGTON     CLOUDY    73  72  96 NW3       30.09R
N MYRTLE BEACH FOG       71  71 100 CALM      30.11R VSB 1/4
MYRTLE BEACH   SUNNY     72  66  83 CALM      30.12R

......INLAND NC AND SC COUNTIES.......

CITY           SKY/WX    TMP DP  RH WIND       PRES   REMARKS
LUMBERTON      CLOUDY    70  68  93 CALM      30.11R FOG
ELIZABETHTOWN  CLOUDY    71  71 100 CALM      30.11R FOG
WHITEVILLE     FOG       72  70  96 CALM      30.11R VSB 1
FLORENCE       MOSUNNY   70  68  93 CALM      30.12R
DARLINGTON     MOSUNNY   68  64  88 CALM      30.13R

....................REST OF NORTH CAROLINA......................

.........EASTERN NC.........

CITY           SKY/WX    TMP DP  RH WIND       PRES   REMARKS
CAPE HATTERAS  CLOUDY    78  74  87 VRB6      30.04R
JACKSONVILLE   CLOUDY    73  68  83 CALM      30.09R
MOREHEAD CITY  CLOUDY    75  75 100 NW8       30.07R
KENANSVILLE      N/A     72  71  98 N3        30.11R FOG
NEW BERN       CLOUDY    76  73  91 NW6       30.08R
ELIZABETH CITY PTSUNNY   75  73  93 NW5       30.06R

.........CENTRAL NC.........

CITY           SKY/WX    TMP DP  RH WIND       PRES   REMARKS
RALEIGH DURHAM MOSUNNY   69  68  96 CALM      30.11R
ROCKY MOUNT    CLOUDY    73  70  90 NW3       30.10R
ROANOKE RAPIDS NOT AVBL
FAYETTEVILLE   MOSUNNY   71  69  93 N5        30.10R FOG
HOFFMAN        SUNNY     68  67  97 N1        30.11R FOG

.........WESTERN NC.........

CITY           SKY/WX    TMP DP  RH WIND       PRES   REMARKS
CHARLOTTE      SUNNY     72  68  87 CALM      30.14R
GREENSBORO     MOSUNNY   72  69  90 CALM      30.12R
HICKORY        NOT AVBL
BOONE          NOT AVBL
ASHEVILLE      NOT AVBL

.....................REST OF SOUTH CAROLINA.....................

.........EASTERN SC.........

CITY           SKY/WX    TMP DP  RH WIND       PRES   REMARKS
CHARLESTON     MOSUNNY   75  71  87 N3        30.12R
BEAUFORT MCAS  MOSUNNY   74  72  93 N6        30.12R
HILTON HEAD    MOSUNNY   77  72  83 CALM      30.12R

.........CENTRAL SC.........

CITY           SKY/WX    TMP DP  RH WIND       PRES   REMARKS
COLUMBIA       MOSUNNY   71  67  87 SW3       30.12R
ORANGEBURG     SUNNY     70  68  93 CALM      30.13R
SUMTER SHAW    MOSUNNY   73  70  91 VRB2      30.11R

.........WESTERN SC.........

CITY           SKY/WX    TMP DP  RH WIND       PRES   REMARKS
GREENVILLE     NOT AVBL
ROCK HILL      SUNNY     69  68  96 CALM      30.13S
ANDERSON       PTSUNNY   68  65  90 CALM      30.14R
CLEMSON        NOT AVBL
GREENWOOD      SUNNY     70  69  97 CALM      30.16R


...................COASTAL AND OFFSHORE REPORTS..................

................LOCAL PIERS AND NC RESERVE................


STATION/POSITION TIME  SKY/WX   TEMP    WIND        PRES    VSBY
                                AIR SEA DIR/SP/G
                 (UTC)          (F)     (DEG/KT/KT) (MB)    (MI)
JOHNY MRCER PIER 1100            73 82  300/  6/  8 1017.9R
NC RESRV MASNBRO NOT AVBL
OCEAN CREST PIER NOT AVBL
SPRINGMAID  PIER 1100            70 82  300/  4/  5 1018.9R


................COASTAL AND OFFSHORE BUOYS................


STATION/POSITION TIME  SKY/WX   TEMP    WIND        PRES    VSBY
                                AIR SEA DIR/SP/G
                 (UTC)          (F)     (DEG/KT/KT) (MB)    (MI)
DIMNDSHOAL 41025 1150            79 84   10/ 12/ 14 1016.8R
WVE H/P(F/S)=  3/ 7 WND WVE H/P(F/S)=  2/ 5 SWL H/P/D(F/S/D)=  2/170/ 7

CAPE LOOKOUT     1200            76     300/ 11/ 13 1017.7R
ONSLOW BAY 41036 NOT AVBL
ONSLOW BAY 41064 1108            78 81  330/ 10/ 16 1018.2R
ONSLOW BAY 41159 1125               81                N/A
WVE H/P(F/S)=  4/ 6 WND WVE H/P(F/S)=  3/ 6

5SE WRITBC 41038 1108            75 81  330/ 10/ 14 1018.5R
MASNBO INL 41110 1119               81                N/A
WVE H/P(F/S)=  3/ 8 WND WVE H/P(F/S)=  3/ 8

WILM HARBR 41108 1111               82                N/A
WVE H/P(F/S)=  3/ 5 WND WVE H/P(F/S)=  3/ 5

27SE WRITB 41037 NOT AVBL
FRYING PAN 41013 1150            81 81  280/ 12/ 14 1019.1R
WVE H/P(F/S)=  2/ 7 WND WVE H/P(F/S)=  2/ 3 SWL H/P/D(F/S/D)=  2/130/ 7

SUNST NRSH 41024 NOT AVBL
CAPRS NRSH 41029 1108            77     360/  8/ 12 1019.1R
EDISTO     41004 1150            81 82  330/  4/  4 1018.8R
WVE H/P(F/S)=  3/ 8 SWL H/P/D(F/S/D)=  3/ 8



..........OFFSHORE BUOYS BEYOND 100 NM OFFSHORE...........
.....IN A TRIANGLE---HAT TO BERMUDA TO BAHAMAS TO HAT.....


STATION/POSITION TIME  SKY/WX   TEMP    WIND        PRES    VSBY
                                AIR SEA DIR/SP/G
                 (UTC)          (F)     (DEG/KT/KT) (MB)    (MI)
150E HAT   41001 1100            82 82  220/  8/ 12 1017.5R
W BERMUDA  41048 1150            83 83  230/  8/  8 1019.7S
WVE H/P(F/S)=  2/10 SWL H/P/D(F/S/D)=  2/ 70/10

ATLANTIC S 41049 1150            83 86  300/ 10/ 12 1019.1F
WVE H/P(F/S)=  3/ 9 SWL H/P/D(F/S/D)=  3/ 40/ 9

E BAHAMAS  41046 1150            84 86  100/  6/  8 1019.0R
WVE H/P(F/S)=  3/10 WND WVE H/P(F/S)=  2/ 3 SWL H/P/D(F/S/D)=  3/ 50/10

NE BAHAMAS 41047 1150            84 85  120/  6/  8 1018.9R
WVE H/P(F/S)=  3/10 WND WVE H/P(F/S)=  2/ 4 SWL H/P/D(F/S/D)=  3/ 80/10

120E CANVRL41010 1120            84 85  160/  4/  6 1018.6R

END



USA.gov is the U.S. government's official web portal to all federal, state and local government web resources and services.